Location: Burbank
(38.7788°N, 114.0429°W)
Time: 01:22:51
(UTC+00:00)

Tiros 1 despin weight - Pass Details

Date: 12 May 2026
Orbit: 554 x 591 km, 48.2° (Epoch: 6 June)

Event Time Altitude Azimuth Distance (km) Brightness Sun altitude
Rises 15:13:39 0° 272° (W) 2,740 ? 30.8°
Reaches altitude 10° 15:16:08 10° 284° (WNW) 1,840 ? 31.3°
Maximum altitude 15:19:49 29° 345° (NNW) 1,045 ? 32.0°
Drops below altitude 10° 15:23:29 10° 46° (NE) 1,835 ? 32.7°
Sets 15:25:58 0° 58° (ENE) 2,730 ? 33.2°
